Location: Bussy-Saint-Georges
(48.8410°N, 2.7017°E)
Time: 21:10:20
(UTC+00:00)

Cosmos 2278 Rocket - Pass Details

Date: 18 October 2021
Orbit: 841 x 845 km, 71.0° (Epoch: 07 December)

Event Time Altitude Azimuth Distance (km) Brightness Sun altitude
Rises 20:54:43 0° 333° (NNW) 3,417 6.1 -38.9°
Reaches altitude 10° 20:57:14 10° 337° (NNW) 2,477 5.2 -39.2°
Enters shadow 20:58:59 20° 342° (NNW) 1,844 4.3 -39.4°
